GW3910 Weather Reports


time (UTC)temp
F
wind
direction
speed
knots
gust
knots
rain 1hr
in
rain 24hr
in
rain mn
in
humidity
%
barometer
mb
20260502164142 52 322 0.0 1.7 0.00 0.00 0.00 84 1013.5
20260502163638 52 304 2.6 2.6 0.00 0.00 0.00 84 1013.5
20260502163135 52 328 0.9 2.6 0.00 0.00 0.00 85 1013.7
20260502162631 52 2 0.9 2.6 0.00 0.00 0.00 84 1013.7
20260502162128 52 28 0.0 1.7 0.00 0.00 0.00 85 1013.5
20260502161626 52 269 0.9 4.3 0.00 0.00 0.00 84 1013.7
20260502161123 52 269 1.7 1.7 0.00 0.00 0.00 84 1013.8
20260502160621 52 308 0.0 1.7 0.00 0.00 0.00 83 1013.8
20260502160119 52 341 0.0 1.7 0.00 0.00 0.00 82 1013.6
20260502152033 51 322 0.0 0.0 0.00 0.00 0.00 84 1014.4
20260502151530 51 11 0.9 0.9 0.00 0.00 0.00 83 1014.0
20260502151028 51 17 0.9 0.9 0.00 0.00 0.00 83 1014.0
20260502150525 51 227 0.9 1.7 0.00 0.00 0.00 82 1014.4
20260502130404 49 30 0.0 0.9 0.00 0.00 0.00 83 1014.1
20260502123347 50 163 1.7 1.7 0.00 0.00 0.00 84 1014.2
20260502122844 50 27 0.0 1.7 0.00 0.00 0.00 83 1014.4
20260502122339 49 31 0.0 0.9 0.00 0.00 0.00 87 1014.4
20260502121838 49 34 0.9 1.7 0.00 0.00 0.00 87 1014.3
20260502121335 48 9 0.0 0.0 0.00 0.00 0.00 89 1014.1
20260502120832 48 43 0.0 1.7 0.00 0.00 0.00 89 1014.5
20260502120328 48 80 0.9 1.7 0.00 0.00 0.00 89 1014.8
20260502115826 48 343 0.0 0.9 0.00 0.00 0.00 89 1014.9
20260502115323 48 20 0.0 0.0 0.00 0.00 0.00 90 1014.8
20260502114819 48 3 0.0 0.0 0.00 0.00 0.00 90 1014.4
20260502114316 47 11 0.9 0.9 0.00 0.00 0.00 91 1014.4
20260502113813 47 293 0.9 0.9 0.00 0.00 0.00 90 1014.7
20260502113311 47 280 0.9 0.9 0.00 0.00 0.00 90 1014.7
20260502112809 47 344 0.0 0.9 0.00 0.00 0.00 90 1014.4
20260502112306 47 329 0.9 0.9 0.00 0.00 0.00 90 1014.5
20260502111803 47 327 0.0 0.0 0.00 0.00 0.00 90 1014.7
20260502111301 47 327 0.0 0.9 0.00 0.00 0.00 90 1014.6
20260502110758 47 326 0.0 0.9 0.00 0.00 0.00 90 1014.6
20260502110256 47 336 0.0 0.0 0.00 0.00 0.00 90 1014.2
20260502105754 47 346 0.0 0.0 0.00 0.00 0.00 91 1014.1
20260502105249 47 349 0.0 0.9 0.00 0.00 0.00 91 1014.2
20260502104748 47 339 0.0 0.9 0.00 0.00 0.00 91 1014.2
20260502104245 47 320 0.0 0.9 0.00 0.00 0.00 91 1014.3
20260502103742 47 329 0.0 0.9 0.00 0.00 0.00 91 1014.2
20260502103240 46 295 0.9 0.9 0.00 0.00 0.00 91 1014.0
20260502102736 46 263 0.9 1.7 0.00 0.00 0.00 91 1013.9
20260502102233 46 298 0.0 0.9 0.00 0.00 0.00 91 1014.0
20260502101731 46 313 0.0 0.9 0.00 0.00 0.00 91 1014.0
20260502101229 46 305 0.9 0.9 0.00 0.00 0.00 90 1013.9
20260502100727 46 318 0.0 0.0 0.00 0.00 0.00 90 1013.8
20260502100225 46 285 0.9 0.9 0.00 0.00 0.00 90 1013.7
20260502091159 46 330 0.0 0.9 0.00 0.00 0.00 88 1013.5
20260502090656 46 314 0.0 0.9 0.00 0.00 0.00 88 1013.7
20260502090153 46 301 0.0 0.9 0.00 0.00 0.00 88 1013.7
20260502071055 48 303 0.9 1.7 0.00 0.00 0.00 83 1013.8
20260502070553 48 294 0.9 1.7 0.00 0.00 0.00 83 1013.8
20260502070050 48 271 0.9 1.7 0.00 0.00 0.00 83 1013.8
20260502065549 47 286 1.7 1.7 0.00 0.00 0.00 82 1013.7
20260502065046 48 294 0.9 0.9 0.00 0.00 0.00 83 1013.8
20260502064545 48 296 0.0 0.9 0.00 0.00 0.00 81 1013.9
20260502064041 48 263 0.9 0.9 0.00 0.00 0.00 81 1013.8
20260502063539 48 313 0.9 1.7 0.00 0.00 0.00 81 1013.8
20260502063037 48 324 0.0 0.9 0.00 0.00 0.00 81 1013.8
20260502062534 48 294 0.9 0.9 0.00 0.00 0.00 81 1013.8
20260502062032 48 312 0.0 0.9 0.00 0.00 0.00 80 1013.9
20260502061530 48 15 0.0 0.9 0.00 0.00 0.00 81 1014.0
20260502061026 48 354 0.0 0.9 0.00 0.00 0.00 80 1013.8
20260502060521 48 264 0.9 1.7 0.00 0.00 0.00 80 1013.9
20260502060013 48 251 1.7 1.7 0.00 0.00 0.00 80 1014.1
20260502055510 48 279 0.9 0.9 0.00 0.00 0.00 80 1014.2
20260502055009 48 262 0.9 2.6 0.00 0.00 0.00 79 1014.2
20260502054507 48 232 0.9 1.7 0.00 0.00 0.00 80 1014.3
20260502054003 48 250 0.9 1.7 0.00 0.00 0.00 80 1014.0
20260502053500 48 202 0.9 1.7 0.00 0.00 0.00 80 1014.1
20260502052959 48 295 0.0 0.9 0.00 0.00 0.00 80 1014.1
20260502052456 48 240 0.9 1.7 0.00 0.00 0.00 80 1014.1
20260502051955 48 205 0.9 1.7 0.00 0.00 0.00 80 1014.4
20260502051452 48 292 0.9 0.9 0.00 0.00 0.00 80 1014.3
20260502050949 48 260 0.9 1.7 0.00 0.00 0.00 79 1014.4
20260502050445 48 312 0.0 1.7 0.00 0.00 0.00 79 1014.5
20260502045943 48 314 0.9 1.7 0.00 0.00 0.00 79 1014.2
20260502045439 49 226 1.7 1.7 0.00 0.00 0.00 79 1014.5
20260502044937 49 299 0.0 0.9 0.00 0.00 0.00 78 1014.4
20260502044432 49 237 2.6 2.6 0.00 0.00 0.00 79 1014.6
20260502043929 49 303 0.0 0.9 0.00 0.00 0.00 78 1014.5
20260502043427 49 295 0.9 1.7 0.00 0.00 0.00 78 1014.6
20260502042926 49 277 0.9 1.7 0.00 0.00 0.00 77 1014.5
20260502042424 49 269 0.9 0.9 0.00 0.00 0.00 77 1014.5
20260502041921 49 229 0.9 1.7 0.00 0.00 0.00 77 1014.7
20260502041419 49 289 0.9 1.7 0.00 0.00 0.00 77 1014.6
20260502040916 49 137 0.9 1.7 0.00 0.00 0.00 77 1014.4
20260502040412 49 267 0.9 0.9 0.00 0.00 0.00 76 1014.6
20260502035908 49 289 0.0 0.9 0.00 0.00 0.00 76 1014.6
20260502035405 50 312 0.0 0.9 0.00 0.00 0.00 76 1014.5
20260502034902 50 260 0.9 1.7 0.00 0.00 0.00 76 1014.5
20260502034401 50 282 0.9 1.7 0.00 0.00 0.00 75 1014.4
20260502033859 50 242 0.9 1.7 0.00 0.00 0.00 75 1014.5
20260502033356 50 297 0.9 0.9 0.00 0.00 0.00 75 1014.6
20260502032853 50 307 0.9 1.7 0.00 0.00 0.00 74 1014.7
20260502032349 50 234 1.7 1.7 0.00 0.00 0.00 75 1014.7
20260502031847 50 289 0.9 0.9 0.00 0.00 0.00 75 1014.7
20260502031345 50 333 0.9 1.7 0.00 0.00 0.00 75 1014.7
20260502030843 50 253 0.9 0.9 0.00 0.00 0.00 74 1014.6
20260502030341 50 307 0.9 0.9 0.00 0.00 0.00 74 1014.8
20260502025837 50 321 0.0 0.9 0.00 0.00 0.00 74 1014.4
20260502025335 50 317 0.9 0.9 0.00 0.00 0.00 74 1014.6
20260502024833 50 247 1.7 1.7 0.00 0.00 0.00 73 1014.7
20260502024331 50 278 0.9 0.9 0.00 0.00 0.00 73 1014.7
20260502023828 50 241 0.9 0.9 0.00 0.00 0.00 73 1014.7
20260502023326 50 275 0.9 1.7 0.00 0.00 0.00 73 1014.8
20260502022824 50 268 0.0 1.7 0.00 0.00 0.00 73 1014.7
20260502022320 50 221 0.9 0.9 0.00 0.00 0.00 73 1014.6
20260502021817 50 322 0.9 0.9 0.00 0.00 0.00 73 1014.7
20260502021314 50 318 0.0 0.9 0.00 0.00 0.00 72 1014.5
20260502020811 50 244 0.9 1.7 0.00 0.00 0.00 72 1014.4
20260502020308 50 262 0.9 2.6 0.00 0.00 0.00 71 1014.5
20260502015806 50 318 0.0 1.7 0.00 0.00 0.00 71 1014.5
20260502015305 50 295 0.9 0.9 0.00 0.00 0.00 70 1014.7
20260502014800 50 235 1.7 1.7 0.00 0.00 0.00 69 1014.8
20260502014256 51 309 1.7 1.7 0.00 0.00 0.00 69 1014.5
20260502013753 51 283 0.9 1.7 0.00 0.00 0.00 69 1014.6
20260502013248 51 180 1.7 2.6 0.00 0.00 0.00 69 1014.7
20260502012745 51 252 0.9 1.7 0.00 0.00 0.00 69 1014.6
20260502012243 51 332 0.9 0.9 0.00 0.00 0.00 68 1014.6
20260502011740 51 211 0.9 5.2 0.00 0.00 0.00 68 1014.7
20260502011236 50 243 1.7 1.7 0.00 0.00 0.00 69 1014.6
20260502010734 51 209 2.6 2.6 0.00 0.00 0.00 68 1014.6
20260502010229 51 270 0.9 1.7 0.00 0.00 0.00 68 1014.6
20260502005727 51 124 0.9 1.7 0.00 0.00 0.00 67 1014.3
20260502005225 51 324 0.0 1.7 0.00 0.00 0.00 67 1014.4
20260502004721 51 239 1.7 2.6 0.00 0.00 0.00 65 1014.4
20260502004217 51 260 1.7 2.6 0.00 0.00 0.00 65 1014.4
20260502003716 52 297 0.9 0.9 0.00 0.00 0.00 65 1013.9
20260502003213 52 269 0.9 1.7 0.00 0.00 0.00 63 1014.0
20260502002708 52 330 0.0 2.6 0.00 0.00 0.00 63 1014.0
20260502002206 53 284 1.7 2.6 0.00 0.00 0.00 62 1013.9
20260502001703 53 318 0.9 2.6 0.00 0.00 0.00 60 1013.7
20260502001201 53 300 0.9 5.2 0.00 0.00 0.00 59 1013.7
20260502000658 54 177 1.7 2.6 0.00 0.00 0.00 57 1013.5
20260502000156 54 22 0.9 4.3 0.00 0.00 0.00 55 1013.4
20260501235651 54 280 0.9 1.7 0.00 0.00 0.00 53 1013.4
20260501235148 55 267 1.7 2.6 0.00 0.00 0.00 50 1013.2
20260501234643 55 280 0.9 2.6 0.00 0.00 0.00 48 1013.1
20260501234141 55 292 0.9 0.9 0.00 0.00 0.00 46 1013.1
20260501233639 56 307 0.0 0.9 0.00 0.00 0.00 44 1012.9
20260501233136 56 241 0.9 1.7 0.00 0.00 0.00 44 1012.8
20260501232632 56 191 1.7 2.6 0.00 0.00 0.00 44 1012.9
20260501232130 57 319 1.7 1.7 0.00 0.00 0.00 43 1013.0
20260501231627 57 237 0.9 1.7 0.00 0.00 0.00 44 1012.8
20260501231125 57 310 0.9 1.7 0.00 0.00 0.00 43 1012.7
20260501230623 57 48 0.9 0.9 0.00 0.00 0.00 44 1012.6
20260501230121 57 260 2.6 4.3 0.00 0.00 0.00 42 1012.8
20260501225619 58 200 2.6 6.1 0.00 0.00 0.00 41 1012.8
20260501225114 58 241 0.9 1.7 0.00 0.00 0.00 41 1012.5
20260501224612 59 310 0.9 4.3 0.00 0.00 0.00 41 1012.3
20260501224109 59 228 3.5 5.2 0.00 0.00 0.00 39 1012.5
20260501223605 59 231 2.6 4.3 0.00 0.00 0.00 39 1012.4
20260501223101 59 201 1.7 5.2 0.00 0.00 0.00 39 1012.3
20260501222558 59 237 0.9 1.7 0.00 0.00 0.00 40 1012.3
20260501222055 59 214 1.7 2.6 0.00 0.00 0.00 41 1012.3
20260501221551 60 340 1.7 2.6 0.00 0.00 0.00 40 1012.2
20260501221049 60 317 0.9 4.3 0.00 0.00 0.00 38 1012.2
20260501220547 60 318 0.9 1.7 0.00 0.00 0.00 40 1012.2
20260501220043 59 316 0.9 1.7 0.00 0.00 0.00 39 1012.3
20260501215540 60 330 0.9 2.6 0.00 0.00 0.00 39 1012.3
20260501215035 59 247 2.6 2.6 0.00 0.00 0.00 40 1012.4
20260501214530 59 285 0.9 1.7 0.00 0.00 0.00 40 1012.3
20260501214026 60 239 1.7 4.3 0.00 0.00 0.00 39 1012.4
20260501213524 61 255 1.7 1.7 0.00 0.00 0.00 38 1012.2
20260501213020 60 358 0.9 0.9 0.00 0.00 0.00 38 1012.3
20260501212516 60 25 0.0 1.7 0.00 0.00 0.00 38 1012.2
20260501212013 61 356 0.9 1.7 0.00 0.00 0.00 39 1012.3
20260501211510 61 314 0.9 4.3 0.00 0.00 0.00 37 1012.1
20260501211008 61 300 1.7 5.2 0.00 0.00 0.00 35 1012.1
20260501210504 61 0 0.9 4.3 0.00 0.00 0.00 36 1012.0
20260501210000 62 24 3.5 7.0 0.00 0.00 0.00 34 1012.0
20260501205457 62 92 0.9 2.6 0.00 0.00 0.00 35 1012.2
20260501204955 62 198 1.7 4.3 0.00 0.00 0.00 34 1012.1
20260501204450 62 215 4.3 7.8 0.00 0.00 0.00 33 1012.1
20260501203947 62 350 0.9 1.7 0.00 0.00 0.00 33 1012.0
20260501203444 62 178 2.6 8.7 0.00 0.00 0.00 35 1012.1
20260501202942 62 318 0.9 1.7 0.00 0.00 0.00 36 1012.0
20260501202438 62 5 0.9 4.3 0.00 0.00 0.00 34 1012.0
20260501201934 63 323 1.7 4.3 0.00 0.00 0.00 39 1012.2
20260501201432 62 334 1.7 2.6 0.00 0.00 0.00 37 1012.2
20260501200929 63 27 1.7 4.3 0.00 0.00 0.00 37 1012.2
20260501200425 62 345 1.7 2.6 0.00 0.00 0.00 33 1011.9
20260501195923 62 342 0.0 0.9 0.00 0.00 0.00 34 1011.8
20260501195420 62 355 0.9 1.7 0.00 0.00 0.00 34 1012.0
20260501194915 63 58 0.9 2.6 0.00 0.00 0.00 36 1012.1
20260501194411 63 30 0.9 2.6 0.00 0.00 0.00 37 1012.0
20260501193907 63 270 4.3 8.7 0.00 0.00 0.00 32 1011.8
20260501193406 62 116 1.7 2.6 0.00 0.00 0.00 34 1012.0
20260501192903 62 48 1.7 2.6 0.00 0.00 0.00 33 1012.1
20260501192400 63 305 2.6 2.6 0.00 0.00 0.00 34 1012.4
20260501191857 63 359 1.7 4.3 0.00 0.00 0.00 34 1012.3
20260501191355 63 42 2.6 2.6 0.00 0.00 0.00 35 1012.2
20260501190852 63 283 1.7 2.6 0.00 0.00 0.00 35 1012.5
20260501190348 62 313 2.6 2.6 0.00 0.00 0.00 35 1012.6
20260501185843 62 321 0.9 2.6 0.00 0.00 0.00 35 1012.6
20260501185339 62 201 0.9 2.6 0.00 0.00 0.00 37 1012.4
20260501184834 62 347 0.0 5.2 0.00 0.00 0.00 37 1012.7
20260501184330 63 21 0.9 5.2 0.00 0.00 0.00 37 1012.7
20260501183826 62 12 1.7 2.6 0.00 0.00 0.00 33 1012.4
20260501183324 62 4 3.5 6.1 0.00 0.00 0.00 30 1012.8
20260501182820 62 38 2.6 5.2 0.00 0.00 0.00 34 1012.6
20260501182317 62 140 0.9 4.3 0.00 0.00 0.00 34 1012.7
20260501181814 61 22 2.6 4.3 0.00 0.00 0.00 37 1012.7
20260501181311 61 269 1.7 4.3 0.00 0.00 0.00 36 1013.0
20260501180808 60 274 6.1 8.7 0.00 0.00 0.00 35 1012.9
20260501180304 61 258 2.6 4.3 0.00 0.00 0.00 41 1012.7
20260501175801 61 317 1.7 5.2 0.00 0.00 0.00 37 1012.9
20260501175258 60 19 0.9 2.6 0.00 0.00 0.00 37 1012.8
20260501174755 61 256 4.3 5.2 0.00 0.00 0.00 38 1012.9
20260501174252 61 39 0.0 2.6 0.00 0.00 0.00 46 1013.0
20260501173750 59 354 0.9 4.3 0.00 0.00 0.00 40 1012.8
20260501173247 60 2 1.7 4.3 0.00 0.00 0.00 43 1012.9
20260501172743 59 355 1.7 6.1 0.00 0.00 0.00 44 1012.9
20260501172238 59 198 2.6 6.1 0.00 0.00 0.00 41 1012.9
20260501171734 59 8 2.6 8.7 0.00 0.00 0.00 42 1013.0
20260501171231 58 346 1.7 2.6 0.00 0.00 0.00 43 1013.0
20260501170728 59 9 0.9 1.7 0.00 0.00 0.00 46 1013.1
20260501170225 58 185 1.7 4.3 0.00 0.00 0.00 42 1013.4
20260501165722 59 350 1.7 4.3 0.00 0.00 0.00 41 1013.5
20260501165220 59 305 2.6 4.3 0.00 0.00 0.00 42 1013.3